When you browse on this site, cookies collect data to enhance your experience and personalize the content and advertising you see.
Visit our Privacy Policy to learn more. By continuing to use the site, you agree to this use of cookies and data.
  • In Portugal
  • List of Countries
  • For 7 days
  • Water Temperature
  • Weather Map
  • Weather Widgets
  • user-avatar
    Login

    Hourly Weather Olszowka

    Today, 28 January, Tuesday

    Time Temperature Precipitation Wind Pressure Humidity
    00:00 0°C° 0 mm 1 mps 714 mmHg 82%
    01:00 -1°C° 0 mm 2 mps 713 mmHg 82%
    02:00 -1°C° 0 mm 2 mps 712 mmHg 82%
    03:00 -1°C° 0 mm 2 mps 712 mmHg 82%
    04:00 -1°C° 0 mm 2 mps 712 mmHg 82%
    05:00 -1°C° 0 mm 2 mps 711 mmHg 82%
    06:00 -1°C° 0 mm 2 mps 711 mmHg 82%
    07:00 -1°C° 0 mm 2 mps 710 mmHg 81%
    08:00 +1°C° 0 mm 2 mps 710 mmHg 80%
    09:00 +2°C° 0 mm 2 mps 710 mmHg 79%
    10:00 +3°C° 0 mm 2 mps 709 mmHg 78%
    11:00 +3°C° 0 mm 2 mps 709 mmHg 79%
    12:00 +3°C° 0 mm 2 mps 709 mmHg 79%
    13:00 +5°C° 0 mm 1 mps 708 mmHg 80%
    14:00 +3°C° 0 mm 2 mps 707 mmHg 82%
    15:00 +2°C° 0 mm 2 mps 707 mmHg 85%
    16:00 +1°C° 0 mm 2 mps 706 mmHg 88%
    17:00 +1°C° 0.1 mm 2 mps 706 mmHg 89%
    18:00 +1°C° 0.1 mm 2 mps 706 mmHg 90%
    19:00 +1°C° 0.1 mm 2 mps 706 mmHg 90%
    20:00 +1°C° 0.3 mm 2 mps 705 mmHg 91%
    21:00 +1°C° 0.3 mm 2 mps 705 mmHg 92%
    22:00 +1°C° 0.3 mm 2 mps 705 mmHg 93%
    23:00 0°C° 0 mm 3 mps 705 mmHg 91%

    Tomorrow, 29 January, Wednesday

    Time Temperature Precipitation Wind Pressure Humidity
    00:00 0°C° 0 mm 3 mps 705 mmHg 89%
    01:00 -1°C° 0 mm 3 mps 705 mmHg 86%
    02:00 -1°C° 0 mm 3 mps 705 mmHg 86%
    03:00 -2°C° 0 mm 3 mps 705 mmHg 86%
    04:00 -2°C° 0 mm 3 mps 705 mmHg 86%
    05:00 -3°C° 0 mm 4 mps 706 mmHg 85%
    06:00 -4°C° 0 mm 4 mps 706 mmHg 84%
    07:00 -4°C° 0 mm 4 mps 707 mmHg 83%
    08:00 -4°C° 0 mm 5 mps 707 mmHg 80%
    09:00 -3°C° 0 mm 6 mps 707 mmHg 77%
    10:00 -2°C° 0 mm 6 mps 707 mmHg 73%
    11:00 -2°C° 0.1 mm 7 mps 707 mmHg 75%
    12:00 -2°C° 0.1 mm 7 mps 707 mmHg 77%
    13:00 -2°C° 0.1 mm 7 mps 707 mmHg 78%
    14:00 -2°C° 0 mm 7 mps 708 mmHg 78%
    15:00 -2°C° 0 mm 6 mps 708 mmHg 79%
    16:00 -3°C° 0 mm 6 mps 708 mmHg 79%
    17:00 -2°C° 0 mm 5 mps 709 mmHg 81%
    18:00 -2°C° 0 mm 5 mps 709 mmHg 83%
    19:00 -3°C° 0 mm 4 mps 710 mmHg 85%
    20:00 -3°C° 0.1 mm 4 mps 710 mmHg 86%
    21:00 -3°C° 0.1 mm 4 mps 710 mmHg 86%
    22:00 -3°C° 0.1 mm 4 mps 711 mmHg 87%
    23:00 -3°C° 0.3 mm 4 mps 711 mmHg 89%

    Day after tomorrow, 30 January, Thursday

    Time Temperature Precipitation Wind Pressure Humidity
    00:00 -3°C° 0.3 mm 4 mps 711 mmHg 91%
    01:00 -3°C° 0.3 mm 4 mps 711 mmHg 93%
    02:00 -4°C° 0.6 mm 5 mps 712 mmHg 94%
    03:00 -4°C° 0.6 mm 5 mps 713 mmHg 94%
    04:00 -4°C° 0.6 mm 5 mps 713 mmHg 95%
    05:00 -3°C° 0.3 mm 4 mps 714 mmHg 94%
    06:00 -3°C° 0.3 mm 4 mps 714 mmHg 93%
    07:00 -3°C° 0.3 mm 4 mps 715 mmHg 92%
    08:00 -3°C° 0 mm 4 mps 715 mmHg 87%
    09:00 -2°C° 0 mm 4 mps 715 mmHg 82%
    10:00 -2°C° 0 mm 4 mps 715 mmHg 76%
    11:00 -2°C° 0 mm 4 mps 715 mmHg 75%
    12:00 -1°C° 0 mm 4 mps 715 mmHg 73%
    13:00 -1°C° 0 mm 4 mps 714 mmHg 71%
    14:00 -1°C° 0 mm 4 mps 714 mmHg 74%
    15:00 -1°C° 0 mm 3 mps 714 mmHg 77%
    16:00 -1°C° 0 mm 3 mps 713 mmHg 80%
    17:00 -1°C° 0 mm 3 mps 713 mmHg 81%
    18:00 -1°C° 0 mm 3 mps 713 mmHg 82%
    19:00 -1°C° 0 mm 3 mps 713 mmHg 83%
    20:00 -1°C° 0 mm 3 mps 713 mmHg 84%
    21:00 -1°C° 0 mm 3 mps 712 mmHg 85%
    22:00 -1°C° 0 mm 3 mps 712 mmHg 85%
    23:00 -1°C° 0 mm 3 mps 712 mmHg 85%

    31 January, Friday

    Time Temperature Precipitation Wind Pressure Humidity
    00:00 -1°C° 0 mm 3 mps 711 mmHg 84%
    01:00 -1°C° 0 mm 2 mps 711 mmHg 84%
    02:00 -1°C° 0 mm 3 mps 710 mmHg 82%
    03:00 -1°C° 0 mm 3 mps 710 mmHg 80%
    04:00 0°C° 0 mm 3 mps 709 mmHg 79%
    05:00 0°C° 0.3 mm 3 mps 709 mmHg 83%
    06:00 0°C° 0.3 mm 4 mps 709 mmHg 86%
    07:00 0°C° 0.3 mm 4 mps 708 mmHg 90%
    08:00 +1°C° 0.6 mm 4 mps 708 mmHg 92%
    09:00 +1°C° 0.6 mm 4 mps 708 mmHg 93%
    10:00 +3°C° 0.6 mm 3 mps 708 mmHg 95%
    11:00 +4°C° 0.5 mm 4 mps 708 mmHg 93%
    12:00 +3°C° 0.5 mm 5 mps 708 mmHg 92%
    13:00 +5°C° 0.5 mm 5 mps 708 mmHg 91%
    14:00 +5°C° 0.1 mm 5 mps 709 mmHg 90%
    15:00 +5°C° 0.1 mm 5 mps 709 mmHg 89%
    16:00 +3°C° 0.1 mm 5 mps 709 mmHg 88%
    17:00 +3°C° 0 mm 5 mps 710 mmHg 87%
    18:00 +3°C° 0 mm 5 mps 710 mmHg 87%
    19:00 +3°C° 0 mm 5 mps 711 mmHg 86%
    20:00 +3°C° 0 mm 5 mps 711 mmHg 87%
    21:00 +3°C° 0 mm 5 mps 711 mmHg 88%
    22:00 +4°C° 0 mm 4 mps 712 mmHg 89%
    23:00 +4°C° 0 mm 4 mps 712 mmHg 89%

    1 February, Saturday

    Time Temperature Precipitation Wind Pressure Humidity
    00:00 +3°C° 0 mm 4 mps 712 mmHg 89%
    01:00 +3°C° 0 mm 3 mps 712 mmHg 90%
    02:00 +3°C° 0 mm 3 mps 712 mmHg 91%
    03:00 +3°C° 0 mm 3 mps 712 mmHg 92%
    04:00 +3°C° 0 mm 3 mps 712 mmHg 93%
    05:00 +3°C° 0 mm 3 mps 712 mmHg 93%
    06:00 +4°C° 0 mm 2 mps 712 mmHg 93%
    07:00 +4°C° 0 mm 2 mps 712 mmHg 93%
    08:00 +5°C° 0 mm 2 mps 712 mmHg 92%
    09:00 +4°C° 0 mm 3 mps 712 mmHg 91%
    10:00 +5°C° 0 mm 3 mps 712 mmHg 91%
    11:00 +5°C° 0.1 mm 3 mps 712 mmHg 90%
    12:00 +7°C° 0.1 mm 3 mps 712 mmHg 90%
    13:00 +7°C° 0.1 mm 3 mps 712 mmHg 89%
    14:00 +7°C° 0.2 mm 3 mps 711 mmHg 90%
    15:00 +5°C° 0.2 mm 3 mps 711 mmHg 91%
    16:00 +5°C° 0.2 mm 3 mps 711 mmHg 92%
    17:00 +5°C° 0.1 mm 3 mps 711 mmHg 91%
    18:00 +5°C° 0.1 mm 3 mps 711 mmHg 91%
    19:00 +5°C° 0.1 mm 3 mps 711 mmHg 90%
    20:00 +5°C° 0.5 mm 3 mps 711 mmHg 91%
    21:00 +5°C° 0.5 mm 3 mps 710 mmHg 92%
    22:00 +5°C° 0.5 mm 3 mps 710 mmHg 93%
    23:00 +5°C° 0.4 mm 3 mps 710 mmHg 93%

    2 February, Sunday

    Time Temperature Precipitation Wind Pressure Humidity
    00:00 +5°C° 0.4 mm 3 mps 710 mmHg 92%
    01:00 +5°C° 0.4 mm 4 mps 710 mmHg 92%
    02:00 +4°C° 1.6 mm 4 mps 711 mmHg 93%
    03:00 +3°C° 1.6 mm 5 mps 711 mmHg 93%
    04:00 +2°C° 1.6 mm 6 mps 712 mmHg 94%
    05:00 +1°C° 0.3 mm 5 mps 713 mmHg 90%
    06:00 +1°C° 0.3 mm 5 mps 713 mmHg 85%
    07:00 0°C° 0.3 mm 5 mps 714 mmHg 81%
    08:00 +1°C° 0 mm 5 mps 715 mmHg 79%
    09:00 +1°C° 0 mm 5 mps 715 mmHg 78%
    10:00 +2°C° 0 mm 5 mps 716 mmHg 76%
    11:00 +2°C° 0 mm 5 mps 716 mmHg 75%
    12:00 +3°C° 0 mm 5 mps 716 mmHg 75%
    13:00 +3°C° 0 mm 6 mps 716 mmHg 74%
    14:00 +2°C° 0 mm 5 mps 715 mmHg 76%
    15:00 +3°C° 0 mm 4 mps 715 mmHg 78%
    16:00 +2°C° 0 mm 3 mps 715 mmHg 80%
    17:00 +2°C° 0.1 mm 3 mps 714 mmHg 81%
    18:00 +2°C° 0.1 mm 3 mps 714 mmHg 82%
    19:00 +1°C° 0.1 mm 4 mps 714 mmHg 83%
    20:00 +3°C° 0.3 mm 4 mps 713 mmHg 85%
    21:00 +4°C° 0.3 mm 4 mps 713 mmHg 86%
    22:00 +5°C° 0.3 mm 4 mps 712 mmHg 88%
    23:00 +5°C° 0.3 mm 4 mps 712 mmHg 89%
    Show more